Lid_Strength_Index
8 11 14 11 11 13 14 15 16 14 12 13 13 13 11 9 11 11 11 10 10 9 7 7 6 6 5 3 3 3 3 3 2 3 4 3 3 3 3 2 2 2 2 2
11 14 10 9 9 11 12 14 15 13 12 14 15 15 13 12 11 11 10 10 10 9 9 8 7 7 6 4 3 2 3 3 3 2 2 3 3 3 2 2 2 2 2 2
13 11 9 9 11 12 12 13 13 13 12 14 16 17 15 13 12 10 10 9 9 9 9 8 8 8 8 7 5 2 2 3 3 2 2 3 4 4 4 4 3 2 2 2
11 9 10 10 12 11 15 10 11 12 13 17 15 22 17 14 14 13 11 12 10 10 10 8 8 8 9 8 7 6 3 2 2 3 3 3 3 4 3 3 3 2 2 2
13 11 11 12 11 9 12 9 11 12 14 15 16 18 18 15 15 12 11 11 13 11 10 10 9 9 10 8 8 7 7 6 3 2 2 3 3 3 3 3 3 3 2 2
12 10 10 10 9 9 8 11 12 12 14 20 16 16 21 17 15 14 13 12 11 11 10 10 9 8 8 8 8 8 7 7 6 5 2 3 3 3 3 3 3 3 3 2
14 12 11 10 11 9 10 13 21 21 21 21 17 16 18 15 14 13 13 12 11 10 10 10 9 9 10 9 9 9 9 9 8 7 6 4 2 2 2 2 2 2 3 3
17 18 13 11 12 13 12 12 17 22 22 21 17 21 18 14 12 12 12 11 10 10 10 10 11 11 11 10 10 10 10 9 8 8 7 6 5 4 1 1 1 1 1 1
15 15 11 10 10 10 13 14 12 17 25 22 19 18 15 13 13 14 13 11 11 11 11 11 11 11 11 11 10 9 9 8 8 7 7 7 7 6 5 3 1 1 1 1
12 15 11 9 9 10 11 10 16 18 25 26 21 21 19 17 14 13 12 12 11 11 11 11 10 10 10 10 9 9 8 8 8 7 7 7 7 6 6 6 6 5 4 3
12 14 14 11 12 13 12 14 13 13 16 21 24 21 17 14 14 13 12 11 11 11 11 11 11 10 9 9 9 9 8 8 8 7 7 7 7 7 7 7 6 6 5 5
11 13 16 14 11 10 10 12 12 17 19 18 18 19 14 14 14 12 12 11 11 11 11 11 10 10 10 9 9 8 8 8 8 7 7 7 7 7 7 7 7 7 6 5
10 13 20 17 13 13 13 11 11 12 14 16 19 19 13 14 14 12 12 12 11 12 12 11 10 10 11 10 9 9 8 8 8 8 8 7 7 7 7 7 7 6 7 7
7 13 14 17 16 13 14 12 11 12 16 16 16 16 14 14 13 12 12 12 11 11 11 11 11 11 10 9 9 9 9 8 8 8 8 8 8 7 7 7 7 7 7 7
9 14 13 12 14 13 13 13 12 13 13 15 15 15 13 12 12 12 12 12 12 12 11 11 11 12 10 9 9 9 9 9 9 9 9 9 8 8 8 8 8 8 8 7
9 16 13 17 12 13 14 12 12 12 12 12 13 14 10 10 10 10 9 9 11 11 11 11 11 10 9 8 9 8 9 9 9 9 9 9 9 9 9 9 8 8 8 8
11 13 16 17 13 13 16 14 12 12 10 11 14 12 9 11 10 10 9 10 10 9 10 10 10 9 9 9 8 9 9 9 9 10 9 9 10 10 10 10 10 10 9 8
12 12 13 16 15 20 12 9 11 11 11 10 10 11 10 9 8 8 8 9 9 9 9 9 9 9 8 9 9 9 9 10 11 11 11 11 11 11 11 10 10 9 8 8
9 11 15 17 17 14 14 12 12 12 12 10 11 10 9 8 9 9 9 7 7 8 8 8 9 9 9 9 10 10 11 12 12 12 12 11 11 11 10 10 10 9 9 9
9 9 13 15 18 20 12 10 9 9 14 9 9 9 9 9 12 10 7 7 8 8 9 9 9 9 10 11 11 12 13 13 13 13 12 11 11 11 10 10 10 9 9 10
14 13 16 16 17 17 11 10 9 16 13 8 8 8 8 9 8 7 9 9 9 9 9 9 10 11 11 12 12 13 13 13 13 12 12 12 12 11 10 10 9 10 10 10
15 15 16 15 17 19 10 12 13 10 8 9 8 7 7 7 7 7 9 9 9 9 10 10 11 12 12 12 13 13 14 13 13 13 13 13 12 11 10 10 10 10 10 10
15 12 14 14 14 10 10 10 9 9 9 8 8 10 8 9 10 9 9 10 10 10 11 12 13 13 13 14 14 15 14 14 14 15 15 14 13 11 10 10 10 10 10 11
12 10 11 12 10 9 8 6 6 8 9 9 9 9 10 9 10 10 11 11 11 11 12 14 15 16 16 17 16 17 16 15 17 18 16 14 13 12 10 10 10 10 10 11
10 10 12 12 10 10 9 7 6 8 10 10 10 10 10 10 10 10 11 11 11 12 14 15 16 16 17 18 18 18 18 18 19 18 17 15 14 12 11 10 10 10 10 10
11 12 12 13 9 9 9 8 9 9 10 10 10 10 9 10 10 11 13 14 15 16 17 17 18 19 20 20 20 20 21 21 22 20 19 17 16 14 12 11 10 9 9 8